Change the Weather History Date:

Saturday, January 12, 2013

  Actual Average (KDAY) Record (KDAY)
Temperature  
Mean Temperature 56 °F 27 °F  
Max Temperature 62 °F 34 °F 67 °F (1916)
Min Temperature 50 °F 20 °F -16 °F (1918)
Degree Days  
Heating Degree Days 9 38  
Month to date heating degree days 450  
Since 1 July heating degree days 2609  
Cooling Degree Days 0 0  
Month to date cooling degree days 0  
Year to date cooling degree days 0  
Growing Degree Days 6 (Base 50)    
Moisture  
Dew Point 54 °F    
Average Humidity 92    
Maximum Humidity 100    
Minimum Humidity 75    
Precipitation  
Precipitation 0.00 in 0.09 in 1.06 in (1916)
Month to date precipitation 1.14  
Year to date precipitation 1.14  
Snow  
Snow 0.00 in 0.20 in 5.80 in (1964)
Month to date snowfall 2.9  
Since 1 July snowfall 8.4  
Snow Depth -    
Sea Level Pressure  
Sea Level Pressure 29.96 in    
Wind  
Wind Speed 10 mph (SSW)    
Max Wind Speed 14 mph    
Max Gust Speed 21 mph    
Visibility 4 miles    
Events Rain    
T = Trace of Precipitation, MM = Missing Value Source: NWS Daily Summary

Daily Weather History Graph

Daily Weather History Graph

Search for Another Location

Airport or City:

Trip Planner

Search our weather history database for the weather conditions in past years. The results will help you decide how hot, cold, wet, or windy it might be!

Date:

Astronomy

Jan. 12, 2013 Rise Set
Actual Time 7:55 AM EST 5:32 PM EST
Civil Twilight 7:26 AM EST 6:01 PM EST
Nautical Twilight 6:52 AM EST 6:35 PM EST
Astronomical Twilight 6:20 AM EST 7:07 PM EST
Moon 8:14 AM EST (1/12) 6:59 PM EST (1/12)
Length of Visible Light 10h 35m
Length of Day
9h 36m
New Moon, 1% of the Moon is Illuminated
Jan 12
New Moon
Jan 18
First Quarter
Jan 26
Full
Feb 3
Last Quarter
Feb 10
New

Hourly Weather History & Observations

Time (EST) Temp. Dew Point Humidity Pressure Visibility Wind Dir Wind Speed Gust Speed Precip Events Conditions
12:56 AM 50.0 °F 45.0 °F 83% 29.96 in 8.0 mi SSW 8.1 mph - N/A   Clear
1:56 AM 52.0 °F 46.9 °F 83% 29.95 in 7.0 mi SSW 10.4 mph - N/A   Clear
2:56 AM 52.0 °F 47.8 °F 86% 29.97 in 7.0 mi SW 11.5 mph - N/A   Clear
3:56 AM 50.9 °F 47.8 °F 89% 29.98 in 7.0 mi SSW 9.2 mph - N/A   Scattered Clouds
4:44 AM 51.8 °F 48.2 °F 88% 29.98 in 6.0 mi SW 8.1 mph - N/A   Scattered Clouds
4:56 AM 50.9 °F 48.9 °F 93% 29.98 in 6.0 mi SW 8.1 mph - N/A   Mostly Cloudy
5:56 AM 52.0 °F 50.9 °F 96% 29.98 in 4.0 mi SSW 10.4 mph - N/A   Overcast
6:04 AM 53.6 °F 51.8 °F 94% 29.98 in 5.0 mi SW 12.7 mph - N/A   Overcast
6:22 AM 53.6 °F 51.8 °F 94% 29.98 in 5.0 mi SSW 11.5 mph - N/A   Mostly Cloudy
6:43 AM 53.6 °F 51.8 °F 94% 29.99 in 5.0 mi SW 10.4 mph - N/A   Scattered Clouds
6:56 AM 52.0 °F 50.9 °F 96% 30.00 in 5.0 mi SW 10.4 mph - N/A   Partly Cloudy
7:33 AM 51.8 °F 51.8 °F 100% 30.00 in 4.0 mi SSW 8.1 mph - N/A   Mostly Cloudy
7:56 AM 52.9 °F 52.0 °F 97% 30.02 in 5.0 mi SSW 10.4 mph - N/A   Overcast
8:31 AM 53.6 °F 51.8 °F 94% 30.03 in 3.0 mi SW 9.2 mph - N/A   Scattered Clouds
8:56 AM 52.9 °F 52.0 °F 97% 30.04 in 3.0 mi SW 10.4 mph - N/A   Scattered Clouds
9:08 AM 53.6 °F 51.8 °F 94% 30.04 in 4.0 mi SSW 10.4 mph - N/A   Mostly Cloudy
9:56 AM 54.9 °F 52.9 °F 93% 30.05 in 4.0 mi SW 10.4 mph - N/A   Overcast
10:05 AM 55.4 °F 53.6 °F 94% 30.04 in 4.0 mi SW 9.2 mph - N/A   Mostly Cloudy
10:24 AM 55.4 °F 53.6 °F 94% 30.04 in 4.0 mi SSW 8.1 mph - N/A   Scattered Clouds
10:56 AM 55.9 °F 54.0 °F 93% 30.03 in 4.0 mi SSW 6.9 mph - N/A   Partly Cloudy
11:18 AM 57.2 °F 55.4 °F 94% 30.03 in 4.0 mi SW 6.9 mph - N/A   Mostly Cloudy
11:56 AM 57.9 °F 54.0 °F 87% 30.02 in 5.0 mi WSW 9.2 mph - N/A   Overcast
12:06 PM 59.0 °F 55.4 °F 88% 30.01 in 5.0 mi SW 8.1 mph - N/A   Overcast
12:56 PM 59.0 °F 54.0 °F 83% 30.02 in 5.0 mi WSW 9.2 mph - N/A   Haze
1:56 PM 59.9 °F 54.9 °F 83% 30.00 in 5.0 mi SW 10.4 mph - N/A   Haze
2:56 PM 61.9 °F 54.0 °F 75% 30.00 in 5.0 mi SSW 6.9 mph - N/A   Haze
3:56 PM 61.0 °F 54.0 °F 78% 29.99 in 5.0 mi South 5.8 mph - N/A   Haze
4:56 PM 57.9 °F 54.0 °F 87% 29.99 in 5.0 mi SSE 3.5 mph - N/A   Mostly Cloudy
5:56 PM 56.8 °F 54.0 °F 90% 29.97 in 5.0 mi SE 3.5 mph - N/A   Mostly Cloudy
6:56 PM 55.9 °F 54.0 °F 93% 29.94 in 3.0 mi ESE 8.1 mph - N/A   Overcast
7:05 PM 55.4 °F 55.4 °F 100% 29.95 in 3.0 mi SE 5.8 mph - N/A   Overcast
7:29 PM 57.2 °F 55.4 °F 94% 29.92 in 3.0 mi SE 9.2 mph - N/A   Overcast
7:44 PM 57.2 °F 57.2 °F 100% 29.92 in 2.5 mi SE 10.4 mph - N/A   Overcast
7:56 PM 57.9 °F 56.8 °F 96% 29.91 in 1.5 mi SE 12.7 mph - N/A   Overcast
8:16 PM 57.2 °F 57.2 °F 100% 29.90 in 2.5 mi SE 12.7 mph - N/A   Overcast
8:31 PM 57.2 °F 57.2 °F 100% 29.89 in 1.8 mi SSE 12.7 mph - N/A   Overcast
8:56 PM 59.0 °F 57.9 °F 96% 29.88 in 1.2 mi SE 12.7 mph - N/A   Overcast
9:07 PM 59.0 °F 57.2 °F 94% 29.89 in 1.8 mi SSE 9.2 mph - N/A   Overcast
9:25 PM 59.0 °F 57.2 °F 94% 29.89 in 3.0 mi South 8.1 mph - N/A   Overcast
9:56 PM 59.0 °F 59.0 °F 100% 29.87 in 3.0 mi SSE 13.8 mph - 0.00 in Rain Light Rain
10:13 PM 60.8 °F 59.0 °F 94% 29.86 in 6.0 mi South 10.4 mph - 0.00 in   Overcast
10:56 PM 61.0 °F 59.0 °F 93% 29.84 in 6.0 mi South 13.8 mph 19.6 mph 0.00 in   Overcast
11:06 PM 62.6 °F 59.0 °F 88% 29.85 in 6.0 mi South 13.8 mph 20.7 mph N/A   Overcast
11:14 PM 62.6 °F 59.0 °F 88% 29.84 in 6.0 mi South 13.8 mph 19.6 mph N/A   Overcast
11:56 PM 61.9 °F 59.0 °F 90% 29.83 in 6.0 mi South 12.7 mph 20.7 mph N/A   Overcast